Temp
62 62 62 61 61 61 62 62 62 62 61 62 63 63 64 64 63 62 59 64 65 67 67 67 69 65 65 63 62 56 49 46 52 51 55 58 58 58 58 58 56 58 58 60 64
61 61 61 61 61 60 60 60 61 60 61 62 63 62 61 61 61 59 65 66 65 67 65 64 62 62 61 60 58 54 48 52 58 58 56 58 59 60 58 55 51 53 59 62 63
60 60 61 61 60 60 59 59 59 60 60 61 62 62 61 60 56 58 61 66 64 64 65 63 62 62 59 58 56 53 51 56 58 59 59 59 57 58 57 52 57 57 56 60 61
59 59 60 60 59 60 59 59 58 59 60 59 61 61 60 59 47 55 61 64 64 62 62 61 59 56 55 55 61 53 56 54 57 59 59 58 59 57 58 59 63 61 61 60 61
59 59 59 59 59 59 60 59 58 59 59 59 62 61 58 52 51 59 60 62 63 60 58 60 55 53 52 51 58 54 55 57 57 58 56 60 56 58 56 55 60 62 62 60 61
59 58 58 59 59 58 59 59 57 58 59 59 62 61 55 47 58 59 59 59 60 60 56 59 58 56 51 51 51 56 56 56 57 55 55 57 54 60 57 56 58 61 60 60 61
58 58 58 58 58 59 59 58 58 58 58 59 61 59 54 51 59 59 59 56 58 60 54 54 58 54 54 50 58 56 54 52 53 55 53 55 52 53 54 57 57 58 59 59 60
58 57 57 58 58 58 58 58 57 57 58 59 60 58 49 58 59 59 59 57 57 59 59 58 59 56 55 53 54 52 51 46 50 52 53 54 49 54 54 56 55 56 56 57 59
57 56 57 57 58 58 58 57 57 57 58 60 55 54 47 58 54 58 60 54 56 56 57 61 59 52 54 46 43 44 40 39 47 50 50 51 48 53 53 54 53 53 54 56 58
57 56 57 57 57 57 57 57 56 55 57 58 56 48 50 49 53 57 59 57 53 53 52 51 49 46 45 46 35 42 36 42 45 49 47 46 47 48 51 51 52 51 52 54 56
57 57 57 57 58 57 53 50 43 46 49 46 47 46 48 54 58 53 56 54 53 50 45 47 42 42 45 47 49 47 44 44 43 48 48 46 46 49 50 46 49 49 51 52 54
57 57 57 57 57 56 51 45 44 46 41 49 50 50 53 56 48 50 57 49 47 41 45 42 40 47 50 50 48 50 45 41 43 44 46 40 45 45 48 49 50 50 50 51 51
56 56 57 57 57 52 48 48 52 51 40 44 48 48 49 54 47 47 53 50 45 41 43 43 45 51 48 44 46 42 48 39 42 42 42 40 41 44 48 48 48 50 51 52 53
56 56 56 56 50 49 47 51 52 51 33 36 42 46 50 51 43 53 55 51 45 40 41 41 45 47 43 44 47 42 46 44 42 40 36 37 33 39 43 47 47 50 50 51 52
56 56 56 56 47 47 49 52 51 48 25 37 41 51 48 44 46 46 52 51 42 41 40 36 40 43 42 44 48 44 47 44 40 36 34 32 33 37 37 42 47 51 50 52 50
55 55 55 50 48 50 52 51 47 32 23 33 40 40 41 43 43 46 47 50 50 41 41 39 44 44 45 43 46 46 44 42 37 35 26 33 33 34 38 45 46 45 45 48 47
54 54 52 51 46 51 49 45 31 25 35 33 35 40 40 38 40 43 41 40 37 32 32 36 36 41 44 41 44 44 40 29 25 21 26 30 30 38 41 45 45 45 45 43 42
55 54 52 51 51 50 46 36 25 30 32 39 39 39 35 39 37 39 40 36 41 38 34 31 28 36 42 40 38 39 40 31 23 22 27 32 29 39 42 42 42 43 43 41 40
52 43 46 49 51 48 39 26 26 29 33 35 37 34 34 38 37 36 38 37 40 42 35 31 31 41 43 42 44 38 37 40 28 19 23 28 32 42 40 43 40 43 40 40 40
40 39 41 48 47 44 33 29 31 34 34 35 32 35 32 35 34 35 36 40 39 44 45 38 30 38 42 45 43 41 44 35 33 24 19 26 28 36 40 43 40 41 42 40 39
37 33 43 47 45 36 28 28 32 37 36 32 32 33 36 35 35 33 35 38 44 42 45 39 36 33 40 37 36 38 36 36 37 32 28 23 31 38 41 42 43 42 43 42 40
33 27 44 43 30 22 30 33 39 37 39 35 34 34 36 37 34 34 34 38 46 44 37 42 35 30 34 38 40 39 39 40 37 27 27 27 31 41 40 40 42 44 44 42 41
29 29 41 39 24 19 27 34 39 35 35 35 34 35 35 34 33 35 38 44 46 43 40 41 33 27 29 35 37 35 36 35 33 34 29 27 35 40 36 37 39 42 42 42 41
27 22 28 30 30 24 22 27 31 39 37 37 36 38 34 32 36 35 35 41 45 47 45 45 35 32 27 31 35 31 34 36 37 27 30 34 32 37 40 41 39 39 40 40 40
26 25 23 16 22 30 29 31 31 28 36 38 36 36 33 28 31 33 37 40 43 44 44 42 30 32 33 34 34 35 36 36 35 37 34 34 36 42 42 41 40 42 41 40 41
26 23 32 28 29 28 30 27 28 30 34 33 33 36 37 31 32 30 34 36 36 40 40 41 28 33 26 33 33 33 35 38 40 40 38 31 33 40 40 39 41 44 43 42 42
35 33 29 30 23 23 24 29 30 34 36 38 35 34 35 36 40 41 40 39 38 38 37 36 31 26 20 28 31 25 31 34 35 37 38 34 43 43 42 42 43 44 43 44 44
MSLP
1015.64 1015.42 1014.99 1014.52 1014.11 1013.74 1013.40 1012.97 1012.95 1012.95 1012.79 1012.36 1012.26 1011.92 1011.62 1011.95 1012.13 1013.22 1011.70 1012.44 1012.53 1012.46 1012.49 1012.41 1012.25 1012.03 1012.22 1012.60 1012.68 1013.39 1014.28 1014.36 1013.98 1014.17 1013.93 1014.03 1014.41 1014.81 1014.95 1015.61 1016.12 1016.36 1016.65 1016.68 1017.64
1015.21 1014.93 1014.67 1014.22 1013.78 1013.56 1013.13 1012.75 1012.60 1012.56 1012.14 1011.80 1011.74 1011.42 1011.04 1011.24 1011.70 1011.91 1011.84 1011.92 1012.25 1012.30 1012.76 1012.41 1012.60 1012.33 1012.65 1012.73 1012.84 1013.36 1014.09 1013.52 1012.89 1013.09 1013.29 1013.54 1013.85 1014.48 1015.09 1015.73 1016.26 1016.57 1016.80 1016.97 1017.80
1014.91 1014.56 1014.24 1013.85 1013.44 1013.18 1012.94 1012.57 1012.26 1011.97 1011.41 1011.23 1011.27 1010.99 1011.07 1011.22 1011.18 1011.36 1012.26 1011.75 1012.51 1012.57 1012.74 1012.89 1012.75 1012.71 1012.93 1012.77 1012.96 1013.26 1013.68 1012.89 1012.61 1012.67 1012.80 1013.33 1014.06 1014.19 1014.90 1015.88 1015.54 1015.95 1016.91 1017.36 1017.93
1014.51 1014.12 1013.76 1013.43 1013.08 1012.71 1012.50 1012.16 1011.59 1011.39 1011.04 1011.14 1010.79 1010.67 1011.00 1011.19 1011.28 1011.80 1011.75 1011.53 1011.85 1012.55 1013.14 1013.06 1012.94 1012.92 1013.71 1013.50 1013.07 1013.20 1013.06 1012.91 1012.67 1012.60 1012.99 1013.43 1013.87 1014.28 1014.53 1014.50 1014.26 1015.15 1015.83 1016.99 1017.79
1013.94 1013.64 1013.33 1012.97 1012.63 1012.25 1011.86 1011.58 1010.75 1010.66 1010.42 1010.49 1010.00 1010.22 1010.51 1010.86 1011.50 1011.93 1011.67 1010.93 1011.72 1012.62 1013.00 1012.91 1012.83 1013.03 1013.44 1013.88 1013.49 1013.23 1013.13 1013.01 1013.09 1012.75 1013.01 1013.12 1013.68 1014.00 1014.53 1014.54 1014.61 1015.60 1016.55 1016.85 1017.48
1013.40 1013.15 1012.83 1012.52 1012.25 1011.75 1011.30 1011.08 1010.98 1010.25 1009.55 1009.61 1008.67 1009.14 1009.62 1010.31 1011.16 1011.68 1011.11 1011.69 1012.09 1011.74 1012.23 1012.42 1012.98 1012.85 1013.64 1014.13 1014.59 1013.59 1013.30 1013.49 1013.31 1013.13 1013.40 1013.34 1013.91 1014.07 1014.69 1014.98 1015.38 1015.96 1016.65 1016.97 1017.20
1012.95 1012.74 1012.36 1012.07 1011.86 1011.40 1010.87 1010.56 1010.35 1010.07 1009.89 1009.27 1008.26 1008.20 1009.11 1010.11 1010.82 1011.53 1011.74 1012.06 1012.00 1011.61 1011.77 1012.86 1013.42 1013.20 1013.84 1014.50 1014.33 1013.72 1013.91 1014.00 1013.78 1013.38 1013.75 1013.50 1014.47 1014.47 1014.80 1015.43 1015.83 1016.36 1016.74 1017.11 1017.30
1012.65 1012.29 1011.92 1011.66 1011.53 1011.07 1010.58 1010.16 1009.78 1009.06 1008.91 1008.49 1007.71 1008.16 1009.40 1010.43 1010.80 1010.66 1011.25 1011.51 1011.90 1011.91 1011.72 1013.09 1013.68 1013.41 1013.48 1014.78 1014.87 1014.29 1014.77 1014.68 1014.13 1013.68 1013.68 1013.86 1014.41 1014.62 1015.00 1015.55 1016.29 1016.63 1016.93 1017.22 1017.24
1012.24 1011.94 1011.46 1011.21 1011.19 1010.69 1010.33 1009.99 1009.77 1009.15 1008.50 1007.78 1007.72 1007.96 1009.42 1010.43 1010.57 1010.29 1011.25 1011.77 1012.01 1011.92 1012.17 1013.26 1013.06 1013.81 1014.22 1014.72 1016.01 1014.97 1014.80 1014.98 1015.12 1014.28 1013.95 1014.12 1014.57 1014.75 1015.21 1015.81 1016.47 1016.79 1017.05 1017.11 1017.27
1011.80 1011.57 1011.16 1010.82 1010.65 1010.49 1010.21 1009.54 1008.90 1008.84 1007.47 1007.42 1007.25 1008.11 1009.16 1009.29 1009.68 1010.88 1011.55 1011.77 1012.22 1012.32 1012.66 1013.02 1014.01 1013.95 1014.16 1014.04 1014.51 1014.82 1014.78 1015.08 1014.95 1014.80 1014.60 1014.62 1014.72 1014.95 1015.37 1016.12 1016.42 1016.89 1017.25 1017.30 1017.08
1011.32 1011.16 1010.97 1010.69 1010.61 1010.27 1010.15 1009.89 1009.95 1008.31 1007.74 1006.87 1006.58 1007.34 1008.13 1009.15 1009.73 1010.24 1011.09 1012.03 1012.30 1012.35 1012.24 1013.20 1013.89 1013.00 1013.21 1013.62 1013.75 1014.41 1014.62 1015.16 1015.11 1014.98 1015.10 1015.06 1015.00 1015.21 1015.46 1016.19 1016.67 1017.11 1017.23 1017.07 1016.98
1010.85 1010.86 1010.65 1010.55 1010.33 1010.40 1010.58 1010.60 1010.67 1010.18 1008.65 1007.40 1007.16 1007.55 1008.40 1008.49 1009.87 1010.80 1010.80 1011.74 1012.32 1012.62 1012.33 1014.04 1013.29 1013.45 1013.45 1013.68 1013.66 1013.94 1014.79 1015.46 1015.58 1015.56 1015.43 1015.68 1015.39 1015.51 1015.68 1015.77 1016.24 1016.75 1016.99 1016.99 1017.12
1010.53 1010.55 1010.62 1010.57 1010.20 1010.14 1010.34 1010.42 1010.08 1010.12 1009.46 1008.52 1008.18 1008.36 1008.63 1008.85 1009.48 1010.47 1010.41 1011.37 1012.34 1013.10 1012.68 1013.15 1013.31 1013.37 1013.77 1014.33 1014.05 1013.74 1014.57 1015.99 1015.84 1016.19 1016.38 1016.43 1016.26 1015.63 1015.21 1015.48 1015.77 1016.11 1016.43 1016.70 1016.91
1010.41 1010.28 1010.35 1010.33 1010.56 1010.30 1010.00 1009.95 1009.61 1009.62 1009.13 1009.38 1008.82 1008.78 1008.87 1009.09 1010.00 1010.54 1010.71 1011.37 1012.74 1013.43 1013.62 1013.74 1013.71 1013.45 1014.22 1014.25 1013.81 1014.12 1014.29 1015.01 1015.99 1016.44 1017.24 1017.17 1016.56 1015.98 1015.14 1015.25 1015.65 1015.68 1016.03 1016.17 1016.45
1010.31 1010.47 1010.38 1010.16 1010.21 1009.87 1009.89 1009.70 1009.58 1009.43 1009.42 1010.00 1009.29 1009.30 1009.23 1009.59 1009.74 1010.80 1011.09 1011.52 1012.39 1013.55 1014.33 1014.74 1014.17 1013.88 1014.29 1014.55 1014.35 1014.39 1014.68 1015.60 1016.54 1017.24 1017.59 1017.92 1017.77 1015.80 1015.48 1015.31 1015.18 1014.83 1015.36 1015.61 1016.10
1010.67 1010.57 1010.61 1010.87 1010.90 1010.51 1010.02 1009.71 1009.73 1009.91 1009.86 1009.89 1009.33 1009.26 1009.56 1009.73 1010.11 1010.43 1011.17 1011.78 1012.75 1014.03 1014.79 1015.01 1014.67 1014.47 1014.78 1015.09 1015.09 1014.66 1015.25 1016.43 1017.30 1018.12 1018.78 1018.11 1018.02 1016.20 1015.50 1014.49 1014.33 1014.44 1014.95 1015.54 1016.19
1011.20 1011.10 1011.04 1011.14 1011.60 1010.85 1010.27 1010.22 1010.29 1010.16 1010.52 1010.20 1009.81 1009.82 1009.96 1010.12 1010.21 1010.21 1011.00 1011.87 1012.56 1014.13 1014.97 1015.37 1015.42 1015.43 1015.32 1016.13 1016.17 1015.23 1015.40 1017.53 1018.98 1019.52 1019.27 1018.81 1018.48 1015.76 1014.78 1014.27 1014.57 1014.74 1015.15 1015.66 1016.32
1011.50 1011.14 1011.43 1011.33 1010.79 1010.92 1010.58 1010.54 1010.97 1011.36 1011.10 1010.35 1010.08 1010.18 1010.19 1010.20 1010.69 1010.73 1011.13 1011.52 1012.40 1012.63 1014.08 1014.66 1016.21 1015.57 1015.22 1015.73 1015.86 1016.12 1015.62 1016.27 1017.88 1019.57 1019.63 1019.22 1017.70 1015.13 1014.36 1014.39 1014.57 1015.10 1015.48 1016.07 1016.86
1012.19 1012.16 1012.15 1011.92 1011.24 1010.72 1010.65 1011.93 1013.48 1013.07 1012.34 1011.38 1010.68 1010.35 1010.36 1010.51 1010.85 1011.15 1011.33 1011.67 1011.74 1011.99 1012.71 1013.86 1014.97 1015.08 1015.33 1015.47 1015.78 1016.22 1015.50 1016.36 1017.83 1020.08 1019.74 1018.38 1017.12 1015.10 1014.45 1014.49 1014.66 1015.20 1015.80 1016.33 1017.03
1013.04 1013.27 1012.74 1012.12 1011.74 1011.58 1012.33 1013.61 1013.94 1013.80 1013.06 1012.07 1011.32 1010.91 1010.67 1010.84 1011.28 1011.11 1011.51 1011.75 1011.82 1011.99 1011.90 1012.69 1014.34 1015.26 1015.21 1015.36 1016.11 1015.75 1015.83 1016.57 1017.27 1018.80 1019.20 1017.84 1016.89 1014.97 1014.44 1014.28 1014.92 1015.41 1015.79 1016.41 1017.13
1013.54 1014.00 1012.96 1012.38 1012.11 1012.62 1013.98 1014.55 1014.47 1013.93 1013.40 1012.80 1012.15 1011.64 1011.19 1011.21 1011.37 1011.47 1011.82 1012.22 1011.81 1012.25 1012.11 1012.58 1013.23 1015.69 1015.48 1015.25 1015.51 1015.97 1016.47 1016.92 1017.23 1017.69 1017.53 1017.29 1015.21 1013.77 1013.63 1013.77 1014.46 1015.36 1015.79 1016.37 1017.03
1014.37 1014.89 1013.49 1012.78 1013.87 1015.17 1015.19 1014.80 1014.66 1014.31 1013.68 1013.33 1012.83 1012.31 1011.63 1011.70 1011.76 1011.93 1011.93 1011.70 1011.87 1012.31 1012.49 1012.67 1013.70 1015.15 1015.36 1015.50 1015.43 1015.26 1015.35 1015.48 1016.05 1017.45 1017.42 1016.96 1014.34 1013.09 1013.38 1013.56 1014.24 1014.68 1015.25 1016.03 1016.81
1015.83 1015.56 1013.86 1014.19 1015.79 1016.41 1016.02 1015.16 1014.95 1014.73 1014.16 1013.69 1013.43 1013.08 1012.56 1012.28 1012.33 1012.23 1012.07 1012.08 1011.90 1012.10 1012.28 1012.74 1013.80 1015.13 1016.05 1016.14 1015.26 1015.00 1015.07 1015.12 1015.08 1015.66 1015.85 1015.84 1012.84 1012.98 1013.34 1013.63 1014.17 1014.78 1015.05 1015.73 1016.67
1016.59 1017.21 1016.45 1016.12 1016.65 1016.63 1016.57 1016.23 1015.30 1014.54 1014.32 1014.12 1013.78 1013.39 1013.05 1012.86 1012.44 1012.33 1012.39 1012.24 1011.85 1011.94 1012.25 1012.61 1013.53 1014.02 1014.39 1014.02 1014.32 1015.18 1015.21 1015.16 1014.95 1015.44 1014.95 1013.73 1013.47 1013.14 1013.28 1013.62 1013.99 1014.63 1015.06 1015.73 1016.47
1017.09 1018.63 1018.78 1018.29 1017.95 1017.36 1016.74 1016.31 1015.47 1015.06 1014.40 1013.72 1013.54 1013.74 1013.89 1013.72 1013.19 1013.08 1012.75 1012.50 1012.20 1012.31 1012.75 1012.81 1013.62 1014.10 1014.67 1014.67 1014.58 1014.60 1014.74 1014.87 1014.50 1014.32 1014.04 1013.37 1013.59 1013.50 1013.15 1013.37 1014.03 1014.37 1014.83 1015.57 1016.09
1017.31 1018.69 1018.72 1018.87 1018.43 1017.79 1017.24 1016.84 1015.81 1015.32 1014.69 1014.03 1013.88 1014.20 1013.99 1014.08 1014.19 1014.12 1013.69 1013.37 1012.92 1012.95 1012.84 1013.23 1013.97 1014.45 1015.55 1015.69 1015.42 1015.03 1014.50 1013.88 1014.02 1014.08 1013.59 1013.40 1013.22 1013.09 1012.80 1013.22 1013.64 1013.96 1014.32 1015.05 1015.46
1017.20 1017.66 1018.03 1018.97 1018.82 1018.58 1018.22 1017.47 1016.53 1015.68 1015.33 1014.31 1014.42 1014.52 1014.37 1014.28 1013.87 1014.08 1014.31 1014.40 1013.96 1013.48 1013.30 1013.49 1014.45 1015.53 1016.64 1016.54 1016.10 1015.52 1013.58 1013.83 1013.82 1013.13 1012.97 1012.63 1011.86 1012.81 1012.78 1012.96 1012.94 1013.11 1013.58 1014.03 1014.39
Wind_Speed
18 18 20 20 15 16 21 19 18 20 19 19 14 9 18 20 16 11 9 4 4 5 7 3 1 5 1 2 3 4 3 4 7 7 4 6 5 2 2 8 1 2 5 5 15
20 18 19 19 15 14 17 17 18 19 19 18 16 12 10 7 11 10 9 10 7 7 1 2 2 3 3 1 2 5 4 8 6 7 7 9 8 10 6 4 2 2 5 14 15
21 21 18 19 18 13 15 15 18 19 16 18 20 13 14 9 4 10 7 13 11 3 3 1 5 4 3 2 2 5 6 4 4 4 7 9 6 5 11 3 7 10 12 15 16
20 20 19 19 18 18 15 16 17 18 18 19 23 17 15 5 7 5 9 3 13 5 0 1 3 6 6 2 3 3 4 2 2 3 6 10 9 6 6 6 8 12 21 15 15
20 19 19 18 18 18 17 19 19 21 21 24 23 22 10 5 1 3 9 9 10 12 7 3 3 5 8 2 3 3 0 3 3 5 1 10 4 7 5 3 9 14 15 17 15
19 18 17 17 19 18 15 14 19 22 20 31 22 20 4 5 4 4 7 4 4 11 8 6 1 4 8 3 6 2 4 4 3 3 2 7 4 7 3 5 10 16 15 13 16
19 17 17 16 18 17 16 14 19 22 19 26 26 4 2 11 8 6 2 2 2 3 8 5 3 3 6 6 5 4 4 3 3 1 2 3 4 5 4 7 12 12 11 9 10
18 16 17 15 17 17 15 13 20 22 20 25 19 6 6 4 8 8 5 4 3 2 9 12 3 6 5 1 5 4 5 3 2 1 1 2 9 4 6 12 11 9 8 7 9
17 15 16 15 15 17 13 15 16 21 25 17 9 5 7 11 5 8 3 5 4 6 9 8 5 4 5 6 3 1 7 4 4 0 2 2 4 3 5 8 9 8 8 9 7
17 13 14 14 15 14 11 14 15 22 14 5 2 8 9 10 7 11 5 8 3 6 8 5 4 4 2 14 20 8 4 2 6 5 1 4 3 3 4 6 10 8 7 8 8
16 11 12 12 13 9 5 4 7 3 5 4 8 6 11 10 7 4 8 6 3 3 8 5 4 18 9 5 7 6 6 7 1 1 3 6 4 6 5 3 7 8 9 10 10
14 10 9 9 11 3 1 2 5 9 4 8 10 10 8 5 7 6 10 5 3 2 12 6 10 5 8 6 6 19 6 2 3 3 3 0 8 4 5 5 7 8 9 10 5
11 7 5 8 8 3 3 1 4 7 2 3 4 5 5 6 6 9 9 6 4 3 4 10 5 8 7 3 5 3 21 8 8 4 4 3 7 5 5 4 4 7 7 6 10
4 4 3 6 2 3 3 3 5 3 2 2 1 3 3 4 5 4 2 6 4 3 3 3 3 10 5 3 4 5 4 6 11 6 5 1 6 6 6 6 7 10 9 10 10
4 1 4 3 4 4 5 2 5 2 3 2 3 0 4 1 15 4 2 3 11 9 3 3 5 15 9 1 3 4 5 7 5 6 5 1 2 8 1 5 9 12 11 12 8
9 8 5 3 2 4 4 5 3 4 3 1 3 5 5 1 2 7 6 6 9 9 8 2 3 2 4 6 5 9 8 7 5 4 2 3 5 7 6 8 4 1 4 7 8
13 16 5 2 2 7 5 2 0 4 3 2 3 3 5 2 4 6 9 11 7 8 4 5 3 1 3 8 7 3 3 3 4 3 6 4 2 6 4 6 4 3 5 5 5
11 9 5 5 7 6 1 3 8 3 3 2 3 6 4 2 5 4 12 7 3 6 5 5 4 10 5 6 7 9 1 6 8 5 3 4 7 8 5 3 3 5 5 5 5
5 4 3 8 8 5 4 7 4 5 7 7 4 3 3 3 5 4 1 5 5 4 6 6 4 2 4 5 8 6 2 3 8 2 4 5 6 12 4 9 3 5 5 7 6
3 3 2 8 7 4 6 5 3 4 6 4 1 1 3 4 3 3 4 3 4 1 1 5 7 1 3 6 4 6 6 2 3 5 4 4 5 6 5 8 5 7 8 7 5
5 4 4 9 3 6 4 3 3 5 6 7 5 2 4 3 3 3 7 1 2 5 4 4 4 1 3 2 9 5 5 1 4 1 5 1 7 8 6 4 9 6 7 7 8
3 4 3 6 5 1 2 3 1 5 4 4 3 5 1 3 3 3 6 4 9 6 4 3 5 5 4 1 3 2 7 7 7 6 1 2 9 5 6 4 5 9 10 8 7
3 2 4 4 3 2 4 3 1 3 3 6 7 7 4 3 3 3 4 3 11 9 9 6 2 5 3 4 3 4 3 4 5 3 9 6 6 1 3 4 5 9 7 6 7
4 3 6 5 1 4 3 2 2 3 2 2 3 1 5 7 5 3 5 1 8 10 7 6 3 4 5 1 8 5 5 4 5 4 5 11 2 3 4 5 4 4 5 7 7
4 1 4 3 4 3 2 1 2 3 3 5 4 6 3 6 4 5 3 2 4 3 6 2 4 3 4 3 2 6 11 8 13 8 11 4 10 8 6 6 4 6 5 6 8
5 4 2 2 3 2 4 3 1 2 1 2 4 6 4 3 4 3 4 3 2 2 5 2 1 3 3 3 3 4 10 18 22 17 12 1 6 5 3 2 4 8 8 8 8
1 1 4 3 3 3 2 2 1 2 2 4 1 2 5 5 3 6 8 2 4 1 3 6 5 4 4 2 3 7 13 13 8 7 9 16 13 3 5 8 10 10 8 9 10
Wind_Direction
309 311 305 316 304 310 306 278 277 287 299 287 237 237 229 200 171 207 218 154 139 332 305 231 52 10 134 120 121 112 65 185 193 157 173 161 129 171 90 119 44 129 147 177 138
302 304 306 313 302 315 312 297 289 294 294 287 224 147 114 200 185 197 140 147 91 358 45 70 157 42 76 118 99 106 153 217 195 176 179 169 142 154 121 129 83 72 44 125 139
304 298 304 303 302 294 300 300 308 284 287 287 227 157 153 156 201 175 332 160 132 89 86 167 114 124 101 87 174 142 217 206 208 189 151 146 132 142 125 238 206 178 153 149 156
305 301 295 299 305 290 295 304 319 285 294 309 204 172 159 203 212 14 326 231 152 122 206 217 154 112 134 206 166 160 251 237 173 172 148 159 131 124 165 218 175 166 159 152 167
298 295 290 297 301 297 288 310 315 287 280 288 190 169 178 100 206 307 358 78 163 143 182 147 106 121 144 94 325 180 281 10 342 93 123 121 150 165 195 352 114 131 159 164 172
298 295 291 293 300 304 292 302 290 293 287 293 173 173 179 131 127 242 357 108 232 137 156 97 69 110 96 100 334 134 75 333 354 81 59 127 138 134 196 123 124 150 173 176 180
299 297 295 288 299 303 294 295 294 286 259 293 177 157 1 156 161 164 81 74 2 211 128 92 324 72 133 105 237 140 77 335 314 35 133 125 76 202 138 147 152 172 180 183 182
299 295 295 284 300 301 301 308 302 305 296 283 215 128 157 162 154 121 93 58 9 44 98 127 27 89 100 178 3 98 89 170 256 129 287 151 209 208 160 152 177 182 185 193 196
303 295 294 284 300 305 307 311 307 301 290 255 163 157 149 140 180 117 110 89 99 82 76 113 96 120 109 111 352 246 170 163 246 203 136 136 191 194 152 169 181 191 197 204 208
301 295 290 286 304 309 325 319 314 297 269 176 100 112 162 170 118 132 112 100 102 144 89 79 72 144 137 159 188 189 136 145 162 210 74 160 187 154 159 181 190 195 212 217 212
300 295 282 285 305 329 352 358 349 352 15 320 143 97 131 103 109 105 122 126 94 318 148 107 136 198 175 183 152 155 151 167 147 64 165 204 221 199 172 191 203 206 212 225 225
295 288 274 294 307 343 111 78 244 289 326 5 82 84 123 139 125 137 144 125 136 68 108 124 205 176 153 216 153 181 152 179 41 11 111 95 266 242 209 214 196 204 222 230 224
281 275 251 307 307 329 215 196 281 280 263 1 21 106 117 143 128 150 156 103 75 132 165 173 143 124 79 173 160 100 184 190 164 151 61 112 297 251 224 201 188 226 224 226 219
247 221 314 309 312 274 295 319 316 310 144 77 128 97 104 129 55 125 247 110 111 121 52 100 327 147 112 200 165 162 167 130 137 122 179 59 259 248 235 227 203 226 212 230 225
124 140 314 45 309 332 337 339 325 271 143 167 84 168 85 121 124 137 34 63 141 130 161 165 162 159 167 205 321 150 131 125 113 94 113 341 95 267 32 248 239 229 216 224 214
65 19 7 23 39 331 325 307 29 249 68 69 64 117 102 20 69 127 117 73 91 90 70 79 44 91 129 43 328 154 100 59 61 86 5 205 157 267 184 205 226 189 205 224 223
68 61 52 350 356 310 313 343 324 41 301 89 99 148 117 133 99 136 148 137 143 136 156 119 96 346 120 96 328 276 131 68 21 9 216 355 220 258 244 236 236 230 235 223 207
85 59 36 32 331 322 359 19 48 319 3 241 112 111 111 125 38 102 148 129 148 90 119 145 159 163 159 152 165 227 236 145 171 177 196 31 234 245 241 289 249 256 240 176 176
17 350 27 336 329 325 53 46 18 334 318 321 72 63 71 89 108 109 134 134 145 200 135 140 71 73 161 141 148 243 232 124 103 30 72 210 287 300 235 270 255 217 178 188 184
60 10 333 330 333 2 64 67 16 324 323 317 89 340 120 120 110 111 130 141 128 130 323 196 112 6 139 119 54 195 161 74 8 142 230 256 262 236 240 239 235 226 211 202 189
56 41 286 343 15 45 79 43 322 313 21 17 14 105 133 123 83 93 141 152 173 153 93 120 92 147 186 205 158 135 170 142 121 108 180 186 254 218 227 198 224 218 222 202 201
62 40 319 3 48 8 63 114 57 314 3 356 40 2 52 94 102 115 176 175 152 141 145 111 110 126 195 307 188 203 171 178 186 190 256 153 257 187 221 248 231 211 199 203 207
84 285 349 58 89 358 319 48 89 311 359 27 23 15 355 47 118 128 163 316 167 160 157 192 86 107 72 334 330 196 184 114 109 92 192 149 262 41 266 253 225 214 209 205 208
80 31 328 41 319 111 68 345 20 353 16 104 16 29 7 21 10 112 143 239 177 205 92 112 165 157 178 267 128 186 170 181 138 173 144 234 15 324 278 250 196 215 223 204 202
50 47 184 316 350 14 36 275 87 355 338 29 32 42 64 11 37 23 46 105 82 140 155 174 149 135 53 30 81 164 171 178 216 208 196 195 216 252 257 250 247 218 187 193 207
117 132 81 86 298 343 8 329 21 303 318 4 69 340 16 95 130 326 341 33 138 241 177 206 72 93 43 357 216 213 211 198 211 224 242 114 264 255 260 144 212 226 201 212 218
125 76 105 331 345 56 257 224 284 319 26 54 15 16 17 353 100 152 131 50 336 347 184 130 119 81 252 340 131 295 216 204 206 202 199 233 233 220 254 222 221 229 211 210 220